EA1M Weather Reports


time (UTC)temp
C
wind
direction
speed
KPH
gust
KPH
rain 1hr
cm
rain 24hr
cm
rain mn
cm
humidity
%
barometer
mb
20260503184116 13 4 4.8 11.3 0.00 0.69 0.48 79 1014.7
20260503183036 13 13 4.8 6.4 0.00 0.71 0.48 79 1014.9
20260503182100 13 6 4.8 9.7 0.00 0.71 0.48 79 1015.0
20260503181020 14 4 3.2 6.4 0.00 0.74 0.48 78 1014.9
20260503180125 14 8 3.2 9.7 0.00 0.74 0.48 77 1014.9
20260503175108 15 356 4.8 9.7 0.00 0.81 0.48 77 1014.9
20260503174027 15 0 4.8 12.9 0.00 0.99 0.48 76 1014.8
20260503173112 15 25 3.2 6.4 0.00 1.27 0.48 76 1014.7
20260503172116 15 5 1.6 9.7 0.00 1.30 0.48 75 1014.7
20260503171036 15 23 3.2 11.3 0.00 1.30 0.48 75 1014.4
20260503170120 15 353 6.4 14.5 0.00 1.30 0.48 73 1014.5
20260503160116 15 17 6.4 12.9 0.00 1.60 0.48 74 1014.3
20260503131037 16 357 3.2 9.7 0.00 2.74 0.48 73 1014.6
20260503120116 15 15 4.8 9.7 0.00 2.79 0.48 80 1014.7
20260503081052 12 70 0.0 1.6 0.03 2.92 0.48 95 1014.7
20260503080116 12 64 0.0 1.6 0.03 2.92 0.48 96 1014.7
20260503072044 11 49 0.0 1.6 0.00 2.90 0.46 96 1014.5
20260503071108 11 0.0 1.6 0.00 2.90 0.46 96 1014.5
20260503060104 12 43 1.6 1.6 0.00 2.90 0.46 96 1014.1
20260503055107 12 0.0 1.6 0.00 2.90 0.46 96 1014.0
20260503054028 12 68 0.0 1.6 0.00 2.90 0.46 96 1014.0
20260503053112 12 80 0.0 1.6 0.00 2.90 0.46 96 1013.9
20260503052115 12 79 1.6 3.2 0.00 2.90 0.46 96 1013.9
20260503051036 12 77 1.6 3.2 0.00 2.90 0.46 96 1013.9
20260503050100 12 78 1.6 1.6 0.00 2.90 0.46 96 1013.8
20260503045040 12 79 1.6 3.2 0.00 2.90 0.46 96 1013.8
20260503044044 12 83 1.6 3.2 0.00 2.90 0.46 96 1013.8
20260503043107 12 68 0.0 1.6 0.00 2.90 0.46 96 1013.9
20260503042027 12 73 0.0 3.2 0.00 2.90 0.46 96 1013.9
20260503041052 12 0.0 0.0 0.00 2.90 0.46 96 1013.9
20260503040116 12 0.0 0.0 0.00 2.90 0.46 96 1013.9
20260503035036 12 68 0.0 1.6 0.00 2.90 0.46 96 1014.1
20260503034121 12 75 1.6 3.2 0.00 2.90 0.46 96 1014.2
20260503033029 12 73 1.6 3.2 0.00 2.90 0.46 96 1014.3
20260503032105 12 71 1.6 1.6 0.00 2.90 0.46 96 1014.2
20260503031108 12 71 0.0 1.6 0.00 2.90 0.46 96 1014.2
20260503030029 12 0.0 0.0 0.05 2.90 0.46 96 1014.2
20260503025113 12 0.0 0.0 0.08 2.90 0.46 96 1014.2
20260503024116 12 0.0 1.6 0.08 2.90 0.46 96 1014.2
20260503023037 12 0.0 0.0 0.08 2.90 0.46 96 1014.4
20260503022100 12 42 0.0 1.6 0.08 2.90 0.46 96 1014.4
20260503021020 12 11 0.0 3.2 0.08 2.90 0.46 96 1014.4
20260503020044 12 39 1.6 1.6 0.05 2.84 0.41 96 1014.4
20260503015109 12 27 1.6 3.2 0.03 2.82 0.38 96 1014.5
20260503014028 12 70 1.6 3.2 0.03 2.82 0.38 96 1014.7
20260503013052 12 77 1.6 3.2 0.03 2.82 0.38 95 1014.8
20260503012116 12 72 0.0 3.2 0.03 2.82 0.38 95 1014.8
20260503011056 12 77 1.6 3.2 0.03 2.82 0.38 95 1015.0
20260503010100 12 78 1.6 3.2 0.00 2.79 0.36 95 1015.1
20260503005021 12 73 1.6 3.2 0.00 2.79 0.36 95 1015.0
20260503004044 12 71 1.6 3.2 0.05 2.79 0.36 95 1015.1
20260503003128 12 75 1.6 3.2 0.10 2.79 0.36 95 1015.1
20260503002028 12 55 0.0 1.6 0.25 2.79 0.36 95 1015.3
20260503001053 12 0.0 0.0 0.30 2.79 0.36 95 1015.4
20260503000116 12 0.0 0.0 0.33 2.79 0.36 95 1015.4
20260502235036 12 51 0.0 1.6 0.36 2.79 0.36 95 1015.5
20260502234100 12 47 0.0 1.6 0.30 2.74 0.30 95 1015.5
20260502233020 12 43 0.0 1.6 0.25 2.69 0.25 95 1015.6
20260502232044 12 47 0.0 1.6 0.10 2.54 0.10 95 1015.7
20260502231128 13 45 0.0 1.6 0.05 2.49 0.05 95 1015.7
20260502230028 13 97 1.6 3.2 0.03 2.46 0.03 95 1015.7
20260502225112 13 116 3.2 4.8 0.00 2.44 0.00 95 1015.8
20260502224136 13 127 3.2 6.4 0.00 2.44 0.00 94 1015.6
20260502223036 13 116 3.2 4.8 0.00 2.44 0.00 94 1015.7
20260502222100 13 113 3.2 4.8 0.00 2.44 0.00 94 1015.8
20260502221019 13 77 1.6 3.2 0.00 2.44 0.00 94 1015.8
20260502220104 13 84 1.6 4.8 0.00 2.44 0.00 94 1015.7
20260502215108 13 77 1.6 3.2 0.00 2.44 2.44 94 1015.7
20260502214028 13 72 3.2 4.8 0.00 2.44 2.44 94 1015.8
20260502213052 13 75 1.6 3.2 0.00 2.44 2.44 94 1015.8
20260502212117 13 76 1.6 3.2 0.00 2.44 2.44 94 1015.9
20260502211057 13 76 1.6 4.8 0.00 2.44 2.44 94 1015.9
20260502210120 13 80 1.6 3.2 0.00 2.44 2.44 94 1015.8
20260502205040 13 81 1.6 3.2 0.00 2.44 2.44 94 1015.9
20260502204044 13 84 1.6 3.2 0.00 2.44 2.44 94 1015.9
20260502203108 13 77 1.6 3.2 0.00 2.44 2.44 94 1015.7
20260502202028 13 71 1.6 3.2 0.00 2.44 2.44 94 1015.6
20260502201052 13 86 1.6 3.2 0.05 2.44 2.44 94 1015.5
20260502200115 13 83 1.6 3.2 0.08 2.44 2.44 94 1015.5
20260502195037 13 99 1.6 3.2 0.15 2.44 2.44 94 1015.4
20260502194119 13 15 3.2 4.8 0.20 2.44 2.44 94 1015.5
20260502193020 13 10 1.6 4.8 0.23 2.44 2.44 94 1015.4
20260502192044 13 23 1.6 4.8 0.23 2.44 2.44 94 1015.5
20260502191109 13 25 1.6 6.4 0.20 2.39 2.39 94 1015.3
20260502190028 13 24 1.6 4.8 0.18 2.36 2.36 94 1015.3
20260502185052 13 29 3.2 11.3 0.18 2.29 2.29 93 1015.2